Madison, WI

11:44 PM CDT on April 23, 2017 (GMT -0500)
Dane County Regional-Truax

Weather History for KMSN - January, 2012

Change the Weather History Date:

Sunday, January 15, 2012

  Actual Average Record
Temperature  
Mean Temperature 23 °F 18 °F  
Max Temperature 31 °F 26 °F 54 °F (1953)
Min Temperature 15 °F 11 °F -30 °F (1963)
Degree Days  
Heating Degree Days 42 47  
Month to date heating degree days 545 694  
Since 1 July heating degree days 2949 3573  
Cooling Degree Days 0 0  
Month to date cooling degree days 0 0  
Year to date cooling degree days 0 0  
Moisture  
Dew Point 17 °F    
Average Humidity 74    
Maximum Humidity 81    
Minimum Humidity 67    
Precipitation  
Precipitation T in 0.04 in 1.00 in (1906)
Month to date precipitation 0.46 0.61  
Year to date precipitation 0.46 0.61  
Snow  
Snow T in 0.40 in 3.80 in (1943)
Month to date snowfall 5.8 6.2  
Since 1 July snowfall 9.9 23.8  
Snow Depth 4.00 in    
Sea Level Pressure  
Sea Level Pressure 30.14 in    
Wind  
Wind Speed 12 mph (South)    
Max Wind Speed 23 mph    
Max Gust Speed 30 mph    
Visibility 9 miles    
Events Snow    
T = Trace of Precipitation, MM = Missing Value Source: NWS Daily Summary

Daily Weather History Graph

Daily Weather History Graph

Search for Another Location

Airport or City:

Trip Planner

Search our weather history database for the weather conditions in past years. The results will help you decide how hot, cold, wet, or windy it might be!

Date:

Astronomy

Jan. 15, 2012 Rise Set
Actual Time 7:26 AM CST 4:47 PM CST
Civil Twilight 6:54 AM CST 5:18 PM CST
Nautical Twilight 6:19 AM CST 5:53 PM CST
Astronomical Twilight 5:45 AM CST 6:28 PM CST
Moon No Moon Rise 10:31 AM CST (1/15)
Length of Visible Light 10h 23m
Length of Day
9h 20m
Waning Gibbous, 57% of the Moon is Illuminated
Jan 15
Waning Gibbous
Jan 16
Last Quarter
Jan 23
New
Jan 30
First Quarter
Feb 7
Full

Hourly Weather History & Observations

Time (CST) Temp. Windchill Dew Point Humidity Pressure Visibility Wind Dir Wind Speed Gust Speed Precip Events Conditions
12:53 AM 17.1 °F 10.0 °F 8.1 °F 68% 30.26 in 9.0 mi South 4.6 mph - 0.00 in Snow Light Snow
1:53 AM 17.1 °F 8.7 °F 10.0 °F 74% 30.26 in 9.0 mi South 5.8 mph - 0.00 in Snow Light Snow
2:27 AM 17.6 °F 7.3 °F 10.4 °F 73% 30.22 in 9.0 mi South 8.1 mph - 0.00 in Snow Light Snow
2:53 AM 18.0 °F 8.7 °F 10.0 °F 71% 30.27 in 9.0 mi South 6.9 mph - 0.00 in Snow Light Snow
3:53 AM 18.0 °F 7.7 °F 10.9 °F 74% 30.27 in 9.0 mi SSW 8.1 mph - 0.00 in   Overcast
4:53 AM 19.0 °F 8.2 °F 10.9 °F 71% 30.26 in 10.0 mi South 9.2 mph - N/A   Overcast
5:40 AM 19.4 °F 11.5 °F 12.2 °F 74% 30.22 in 10.0 mi SSW 5.8 mph - N/A   Overcast
5:53 AM 19.9 °F 13.4 °F 12.0 °F 71% 30.28 in 10.0 mi South 4.6 mph - N/A   Overcast
6:53 AM 19.0 °F 8.2 °F 12.0 °F 74% 30.28 in 9.0 mi South 9.2 mph - N/A   Mostly Cloudy
7:53 AM 18.0 °F 6.9 °F 10.9 °F 74% 30.27 in 7.0 mi SSE 9.2 mph - N/A   Partly Cloudy
8:53 AM 19.0 °F 6.1 °F 12.9 °F 77% 30.28 in 7.0 mi South 12.7 mph - N/A   Scattered Clouds
9:33 AM 19.4 °F 8.6 °F 14.0 °F 80% 30.23 in 7.0 mi South 9.2 mph - N/A   Mostly Cloudy
9:53 AM 21.0 °F 9.9 °F 15.1 °F 78% 30.28 in 7.0 mi SSE 10.4 mph - N/A   Mostly Cloudy
10:17 AM 21.2 °F 10.9 °F 15.8 °F 80% 30.23 in 7.0 mi SSE 9.2 mph - N/A   Partly Cloudy
10:53 AM 25.0 °F 14.2 °F 18.0 °F 75% 30.27 in 7.0 mi SSE 11.5 mph - N/A   Clear
11:53 AM 28.4 °F 18.5 °F 19.4 °F 69% 30.18 in 8.0 mi SSE 11.5 mph - N/A   Clear
12:53 PM 28.9 °F 18.2 °F 19.9 °F 69% 30.20 in 8.0 mi South 13.8 mph 20.7 mph N/A   Clear
1:53 PM 30.9 °F 20.2 °F 21.9 °F 69% 30.15 in 8.0 mi South 15.0 mph - N/A   Clear
2:53 PM 30.9 °F 20.2 °F 21.9 °F 69% 30.12 in 9.0 mi SSE 15.0 mph 25.3 mph N/A   Clear
3:53 PM 30.0 °F 18.7 °F 21.9 °F 72% 30.09 in 8.0 mi SSE 16.1 mph - N/A   Clear
4:53 PM 28.9 °F 16.5 °F 21.9 °F 75% 30.05 in 7.0 mi SSE 18.4 mph 26.5 mph N/A   Clear
5:53 PM 28.9 °F 16.5 °F 21.9 °F 75% 30.04 in 9.0 mi SSE 18.4 mph - N/A   Clear
6:53 PM 28.0 °F 14.9 °F 21.9 °F 78% 30.05 in 9.0 mi SSE 19.6 mph - N/A   Scattered Clouds
7:21 PM 28.4 °F 15.8 °F 21.2 °F 74% 30.01 in 9.0 mi SSE 18.4 mph - N/A   Mostly Cloudy
7:53 PM 28.0 °F 16.1 °F 21.9 °F 78% 30.05 in 9.0 mi SSE 16.1 mph - N/A   Mostly Cloudy
8:15 PM 26.6 °F 14.7 °F 21.2 °F 80% 30.00 in 10.0 mi SSE 15.0 mph - N/A   Scattered Clouds
8:49 PM 26.6 °F 15.2 °F 21.2 °F 80% 29.98 in 9.0 mi SSE 13.8 mph - N/A   Mostly Cloudy
8:53 PM 27.0 °F 14.7 °F 21.0 °F 78% 30.02 in 9.0 mi SSE 16.1 mph - N/A   Mostly Cloudy
9:53 PM 27.0 °F 15.2 °F 21.0 °F 78% 30.00 in 10.0 mi SSE 15.0 mph - N/A   Mostly Cloudy
10:33 PM 26.6 °F 14.7 °F 21.2 °F 80% 29.94 in 9.0 mi SSE 15.0 mph - N/A   Scattered Clouds
10:53 PM 27.0 °F 16.1 °F 21.0 °F 78% 29.97 in 9.0 mi SSE 12.7 mph - N/A   Partly Cloudy
11:53 PM 28.4 °F 17.5 °F 23.0 °F 80% 29.90 in 9.0 mi South 13.8 mph - N/A   Partly Cloudy